Regional Weather Roundup
Issued by NWS

Home | Current Version | Previous Version | Graphics & Text | Print | Product List | Glossary On
Versions: 1 2 3 4 5 6 7 8 9 10 11 12 13 14 15 16 17 18 19 20 21 22 23 24 25 26 27 28 29 30 31 32 33 34 35 36 37 38 39 40 41 42 43 44 45 46 47 48 49 50
851
ASUS43 KTOP 131259
RWRKS

WEATHER ROUNDUP FOR KANSAS
NATIONAL WEATHER SERVICE GOODLAND KS
700 AM CST SAT FEB 13 2016

NOTE:  "FAIR" INDICATES FEW OR NO CLOUDS BELOW 12,000 FEET WITH NO
SIGNIFICANT WEATHER AND/OR OBSTRUCTIONS TO VISIBILITY.

KSZ001>006-013>018-027>032-041>047-131400-
NORTHWEST KANSAS

CITY           SKY/WX    TMP DP  RH WIND       PRES   REMARKS
GOODLAND       FOG       25  24  96 S22       30.24S VSB 1   WCI  10
HAYS           CLOUDY    19   7  58 SE10      30.43S WCI   8
HILL CITY      CLOUDY    21  16  81 SE10      30.41F WCI  10
RUSSELL        CLOUDY    19  15  84 E8        30.43S
$$

KSZ061>065-074>080-084>089-131400-
SOUTHWEST KANSAS

CITY           SKY/WX    TMP DP  RH WIND       PRES   REMARKS
DODGE CITY     CLOUDY    20  17  88 SE7       30.37S
ELKHART          N/A     25  19  78 S13         N/A  WCI  14
GARDEN CITY    CLOUDY    22  20  92 SE12      30.32F WCI  10
GREAT BEND     CLOUDY    21   9  58 E7        30.45S
LIBERAL        CLOUDY    27  21  80 SE14      30.32F WCI  15
$$

KSZ066>073-081>083-090>101-131400-
SOUTHEAST KANSAS

CITY           SKY/WX    TMP DP  RH WIND       PRES   REMARKS
CHANUTE        CLOUDY    22   5  48 NE7       30.55R
COFFEYVILLE    CLOUDY    23   6  48 NE10      30.55R WCI  12
HUTCHINSON     CLOUDY    21  11  65 E12       30.48S WCI   9
MEDICINE LODGE   N/A     24  16  71 E5        30.45S
NEWTON         CLOUDY    18   7  62 E7        30.50R
PARSONS        CLOUDY    23   5  46 NE6       30.55R
WICHITA INTL   CLOUDY    23  10  57 E12       30.48S WCI  12
WICHITA JABRA  CLOUDY    20  10  65 NE8       30.49R
WINFIELD       CLOUDY    24  10  55 E9        30.50S
$$

KSZ007>012-019>026-033>040-048>060-102>105-131400-
NORTHEAST KANSAS

CITY           SKY/WX    TMP DP  RH WIND       PRES   REMARKS
CONCORDIA      CLOUDY    19   7  59 E12       30.50F WCI   7
EMPORIA        CLOUDY    20   6  55 NE12      30.53S WCI   8
LAWRENCE       CLOUDY    18   3  52 NE8       30.62R
MANHATTAN      CLOUDY    19   5  54 E12       30.56F WCI   7
OLATHE IND     CLOUDY    18   2  49 E6        30.61R
OLATHE EXE     CLOUDY    16  -1  47 NE8       30.59R
SALINA         CLOUDY    21  10  62 E9        30.51F
TOPEKA BILLARD CLOUDY    20   4  50 E9        30.60S
TOPEKA FORBES  MOCLDY    20   5  52 E10       30.57S WCI   9
$$




USA.gov is the U.S. government's official web portal to all federal, state and local government web resources and services.